Terug naar catalogus

STARLINK-4011

ActiefCommunicatieVLEO
NORAD 52615·PAYLOAD·🇺🇸 United States

Gelanceerd May 14, 2022 vanaf Cape Canaveral Space Force Station

Loading…

Volgende Passages (komende 24 uur)

TLE

VersSource: CelesTrak SupGP

Epoch: Sep 14, 2026, 22:12 UTC

1 52615C 22052T   26257.92548611 -.00031648  00000+0 -90570-3 0  2572
2 52615  53.1583 142.2386 0001263  83.8063 196.1915 15.35406856    18

Volg STARLINK-4011 in realtime met AllMySat

Download on the App Store